Date String (YYYY-MM-DD hh:mm:ss) UTC,Instrument flags,absolute air pressure of the measurement (hPa),sample flow rate (lpm),inlet stack bypass flow (lpm),air temperature of the measurement (°C),ambient temperature measured by the external sensor (°C),aerosol sample conditioner tube jacket temperature (°C),OPC LED temperature (°C),internal box temperature (°C),relative humidity of the measurement (%),span deviation,mass concentration of particles derived from Lorenz-Mie calculation of OPC scattering (μg/m³),mass concentration of particles derived from Lorenz-Mie calculation of OPC scattering (μg/m³),mass concentration of particles derived from Lorenz-Mie calculation of OPC scattering (μg/m³)
DateTimeUTC,F1_M11,P_M11,Q1_M11,Q2_M11,T1_M11,T2_M11,T3_M11,T4_M11,T5_M11,U1_M11,ZSPAN_M11,X2_M11,X0_M11,X1_M11
2023-06-22 13:00:00,SystemResetWarning,0832.7,5.00,000.00,030.3,028.7,000.0,038.9,031.7,27.7,0000.0,0003.44,0005.15,0003.16
2023-06-22 13:01:00,SystemResetWarning,0832.7,4.99,000.00,030.3,028.7,000.0,038.9,031.7,27.5,0000.0,0003.45,0005.11,0003.15
2023-06-22 13:02:00,SystemResetWarning,0832.7,5.00,000.00,030.3,028.7,000.0,038.9,031.7,27.2,0000.0,0003.48,0005.32,0003.15
2023-06-22 13:03:00,SystemResetWarning,0832.7,5.00,000.00,030.3,028.7,000.0,038.9,031.7,27.7,0000.0,0003.47,0005.65,0003.16
2023-06-22 13:04:00,SystemResetWarning,0832.7,5.01,000.00,030.3,028.7,000.0,038.9,031.7,27.5,0000.0,0003.49,0006.27,0003.17
2023-06-22 13:05:00,SystemResetWarning,0832.7,5.00,000.00,030.3,028.7,000.0,038.9,031.7,27.8,0000.0,0003.48,0006.12,0003.18
2023-06-22 13:06:00,SystemResetWarning,0832.7,4.99,000.00,030.3,028.7,000.0,038.9,031.7,28.3,0000.0,0003.48,0006.19,0003.19
2023-06-22 13:07:00,SystemResetWarning,0832.7,5.00,000.00,030.3,028.7,000.0,038.9,031.7,28.3,0000.0,0003.53,0006.35,0003.20
2023-06-22 13:08:00,SystemResetWarning,0832.7,4.99,000.00,030.3,028.7,000.0,038.9,031.7,28.1,0000.0,0003.55,0006.45,0003.21
2023-06-22 13:09:00,SystemResetWarning,0832.7,5.00,000.00,030.3,028.7,000.0,038.9,031.7,27.6,0000.0,0003.61,0006.65,0003.23
2023-06-22 13:10:00,SystemResetWarning,0832.7,5.00,000.00,030.3,028.7,000.0,038.9,031.7,27.9,0000.0,0003.64,0006.78,0003.24
2023-06-22 13:11:00,SystemResetWarning,0832.6,5.01,000.00,030.3,028.7,000.0,038.9,031.7,27.6,0000.0,0003.66,0006.88,0003.25
2023-06-22 13:12:00,SystemResetWarning,0832.7,5.01,000.00,030.3,028.7,000.0,038.9,031.7,27.2,0000.0,0003.68,0006.97,0003.27
2023-06-22 13:13:00,SystemResetWarning,0832.6,5.01,000.00,030.3,028.6,000.0,038.9,031.7,28.0,0000.0,0003.66,0006.99,0003.28
2023-06-22 13:14:00,SystemResetWarning,0832.7,4.99,000.00,030.3,028.6,000.0,038.9,031.7,28.4,0000.0,0003.67,0006.91,0003.30
2023-06-22 13:15:00,SystemResetWarning,0832.6,4.99,000.00,030.3,028.6,000.0,038.9,031.6,27.7,0000.0,0003.72,0006.35,0003.33
2023-06-22 13:16:00,SystemResetWarning,0832.7,5.00,000.00,030.3,028.7,000.0,038.9,031.7,28.1,0000.0,0003.75,0006.80,0003.35
2023-06-22 13:17:00,SystemResetWarning,0832.6,5.00,000.00,030.3,028.7,000.0,038.9,031.7,28.6,0000.0,0003.79,0006.91,0003.37
2023-06-22 13:18:00,SystemResetWarning,0832.6,5.01,000.00,030.3,028.7,000.0,038.9,031.7,28.2,0000.0,0003.79,0007.42,0003.39
2023-06-22 13:19:00,SystemResetWarning,0832.6,5.00,000.00,030.3,028.7,000.0,038.9,031.7,27.8,0000.0,0003.81,0007.76,0003.42
2023-06-22 13:20:00,SystemResetWarning,0832.6,5.00,000.00,030.3,028.7,000.0,039.0,031.8,27.6,0000.0,0003.83,0007.88,0003.44
2023-06-22 13:21:00,SystemResetWarning,0832.6,5.00,000.00,030.4,028.7,000.0,039.0,031.8,27.2,0000.0,0003.85,0007.92,0003.47
2023-06-22 13:22:00,SystemResetWarning,0832.6,5.00,000.00,030.4,028.7,000.0,039.0,031.8,27.0,0000.0,0003.86,0007.89,0003.50
2023-06-22 13:23:00,SystemResetWarning,0832.6,5.00,000.00,030.4,028.7,000.0,039.0,031.8,27.7,0000.0,0003.90,0007.92,0003.52
2023-06-22 13:24:00,SystemResetWarning,0832.6,5.00,000.00,030.4,028.7,000.0,039.0,031.7,27.5,0000.0,0003.91,0008.53,0003.54
2023-06-22 13:25:00,SystemResetWarning,0832.6,5.00,000.00,030.4,028.7,000.0,039.0,031.8,27.7,0000.0,0003.93,0008.41,0003.56
2023-06-22 13:26:00,SystemResetWarning,0832.7,5.00,000.00,030.4,028.7,000.0,039.0,031.8,28.3,0000.0,0003.93,0008.41,0003.58
2023-06-22 13:27:00,SystemResetWarning,0832.6,5.00,000.00,030.4,028.7,000.0,039.0,031.8,28.6,0000.0,0003.97,0008.33,0003.60
2023-06-22 13:28:00,SystemResetWarning,0832.6,5.00,000.00,030.4,028.7,000.0,039.0,031.7,27.8,0000.0,0003.97,0008.28,0003.62
2023-06-22 13:29:00,SystemResetWarning,0832.7,5.00,000.00,030.4,028.8,000.0,039.0,031.8,28.5,0000.0,0003.99,0007.89,0003.64
2023-06-22 13:30:00,SystemResetWarning,0832.6,4.99,000.00,030.4,028.8,000.0,039.0,031.8,29.0,0000.0,0003.99,0007.49,0003.67
2023-06-22 13:31:00,SystemResetWarning,0832.6,5.00,000.00,030.4,028.8,000.0,039.0,031.8,29.3,0000.0,0004.01,0007.43,0003.69
2023-06-22 13:32:00,SystemResetWarning,0832.6,5.00,000.00,030.4,028.8,000.0,039.0,031.8,29.3,0000.0,0004.03,0007.42,0003.71
2023-06-22 13:33:00,SystemResetWarning,0832.6,5.00,000.00,030.4,028.8,000.0,039.0,031.8,29.5,0000.0,0004.06,0007.46,0003.73
2023-06-22 13:34:00,SystemResetWarning,0832.5,4.99,000.00,030.5,028.0,000.0,039.0,032.0,29.8,0000.0,0004.07,0007.47,0003.76
2023-06-22 13:35:00,SystemResetWarning,0832.5,5.00,000.00,030.4,026.0,000.0,038.9,031.9,28.7,0000.0,0004.15,0006.59,0003.79
2023-06-22 13:36:00,SystemResetWarning,0832.5,5.01,000.00,030.4,025.2,000.0,038.8,031.8,28.1,0000.0,0004.22,0006.83,0003.82
2023-06-22 13:37:00,SystemResetWarning,0832.5,5.01,000.00,030.3,025.3,000.0,038.8,031.5,28.2,0000.0,0004.25,0006.73,0003.84
2023-06-22 13:38:00,SystemResetWarning,0832.5,5.00,000.00,030.2,025.7,000.0,038.8,031.3,28.9,0000.0,0004.28,0006.87,0003.85
2023-06-22 13:39:00,SystemResetWarning,0832.5,5.00,000.00,030.1,026.2,000.0,038.8,031.3,31.2,0000.0,0004.30,0006.88,0003.87
2023-06-22 13:40:00,SystemResetWarning,0832.5,5.00,000.00,030.1,026.6,000.0,038.8,031.3,33.4,0000.0,0004.32,0007.28,0003.87
2023-06-22 13:41:00,SystemResetWarning,0832.6,5.00,000.00,030.1,026.9,000.0,038.8,031.3,33.8,0000.0,0004.35,0008.00,0003.89
2023-06-22 13:42:00,SystemResetWarning,0832.6,5.00,000.00,030.1,027.2,000.0,038.7,031.4,33.0,0000.0,0004.34,0007.98,0003.88
2023-06-22 13:43:00,SystemResetWarning,0832.5,5.00,000.00,030.1,027.5,000.0,038.7,031.4,32.0,0000.0,0004.33,0007.97,0003.87
2023-06-22 13:44:00,SystemResetWarning,0832.5,5.00,000.00,030.0,027.7,000.0,038.7,031.4,29.9,0000.0,0004.31,0008.45,0003.86
2023-06-22 13:45:00,SystemResetWarning,0832.5,5.00,000.00,030.0,027.9,000.0,038.7,031.4,28.4,0000.0,0004.30,0008.52,0003.85
2023-06-22 13:46:00,SystemResetWarning,0832.5,5.00,000.00,030.0,028.0,000.0,038.7,031.4,27.4,0000.0,0004.24,0008.41,0003.85
2023-06-22 13:47:00,SystemResetWarning,0832.5,4.99,000.00,030.1,028.1,000.0,038.7,031.5,28.4,0000.0,0004.22,0008.37,0003.84
2023-06-22 13:48:00,SystemResetWarning,0832.4,5.00,000.00,030.1,028.2,000.0,038.7,031.5,29.0,0000.0,0004.23,0008.36,0003.84
2023-06-22 13:49:00,SystemResetWarning,0832.4,5.00,000.00,030.1,028.3,000.0,038.7,031.5,29.5,0000.0,0004.18,0008.27,0003.83
2023-06-22 13:50:00,SystemResetWarning,0832.3,5.00,000.00,030.1,028.3,000.0,038.7,031.5,29.6,0000.0,0004.16,0008.23,0003.82
2023-06-22 13:51:00,SystemResetWarning,0832.3,5.00,000.00,030.1,028.4,000.0,038.7,031.5,29.8,0000.0,0004.15,0008.05,0003.82
2023-06-22 13:52:00,SystemResetWarning,0832.4,5.01,000.00,030.1,028.4,000.0,038.7,031.5,29.6,0000.0,0004.15,0007.49,0003.81
2023-06-22 13:53:00,SystemResetWarning,0832.3,5.00,000.00,030.1,028.5,000.0,038.7,031.6,29.5,0000.0,0004.14,0007.49,0003.82
2023-06-22 13:54:00,SystemResetWarning,0832.3,5.00,000.00,030.1,028.5,000.0,038.7,031.6,29.7,0000.0,0004.16,0007.54,0003.83
2023-06-22 13:55:00,SystemResetWarning,0832.3,5.00,000.00,030.1,028.6,000.0,038.7,031.6,29.0,0000.0,0004.18,0007.14,0003.84
2023-06-22 13:56:00,SystemResetWarning,0832.3,5.00,000.00,030.2,028.6,000.0,038.7,031.6,29.7,0000.0,0004.22,0007.00,0003.86
2023-06-22 13:57:00,SystemResetWarning,0832.3,4.99,000.00,030.2,028.6,000.0,038.7,031.6,29.7,0000.0,0004.23,0007.05,0003.87
2023-06-22 13:58:00,SystemResetWarning,0832.3,5.00,000.00,030.2,028.6,000.0,038.7,031.7,29.1,0000.0,0004.22,0006.99,0003.86
2023-06-22 13:59:00,SystemResetWarning,0832.3,4.99,000.00,030.2,028.6,000.0,038.7,031.7,29.4,0000.0,0004.19,0006.93,0003.85
